Voltar ao catálogo

SES MPOWER-A F2

AtivoComunicaçõesMEO
NORAD 54756·PAYLOAD·🇱🇺 Luxembourg

Lançado Dec 16, 2022 de Cape Canaveral Space Force Station

Loading…

Próximas Passagens (próximas 24 horas)

TLE

AtualizadoSource: CelesTrak SupGP

Época: Sep 15, 2026, 00:00 UTC

1 54756C 22174B   26258.00000000  .00000000  00000+0  00000+0 0  2582
2 54756   0.0400 346.1181 0005518 182.1683  81.9881  5.00119058    10

Acompanhe SES MPOWER-A F2 em tempo real com AllMySat

Download on the App Store